Regional Weather Roundup
Issued by NWS Newport/Morehead, NC

Current Version | Previous Version | Graphics & Text | Print | Product List | Glossary Off
Versions: 1 2 3 4 5 6 7 8 9 10 11 12 13 14 15 16 17 18 19 20 21 22 23 24 25 26 27 28 29 30 31 32 33 34 35 36 37 38 39 40 41 42 43 44 45 46 47 48 49 50

000
ASUS42 KMHX 191024
RWRMHX
WEATHER ROUNDUP FOR EASTERN NORTH CAROLINA
NATIONAL WEATHER SERVICE NEWPORT/MOREHEAD CITY NC
600 AM EDT SUN APR 19 2015

NOTE: "FAIR" INDICATES FEW OR NO CLOUDS BELOW 12,000 FEET
WITH NO SIGNIFICANT WEATHER AND/OR OBSTRUCTIONS TO VISIBILITY

NCZ015>017-031-032-045>047-102-103-191100-
NORTH COAST

CITY           SKY/WX    TMP DP  RH WIND       PRES   REMARKS
EDENTON        PTCLDY    58  57  97 CALM      30.02R FOG
ELIZABETH CITY FOG       57  57 100 E3        30.02S VSB 1/2
KITTY HAWK     FOG       54  54 100 NE3       30.01R VSB 1/4
MANTEO         MOCLDY    57  57  99 E6        30.02R FOG

$$

NCZ045>047-081-094-103-104-191100-
CENTRAL COAST

CITY           SKY/WX    TMP DP  RH WIND       PRES   REMARKS
FRISCO         MOCLDY    58  58 100 E5        29.99S
SWANQUARTER      N/A     63 N/A N/A NE5       29.97R

$$

NCZ095-097-098-100-101-191100-
SOUTHERN COAST

CITY           SKY/WX    TMP DP  RH WIND       PRES   REMARKS
BEAUFORT       CLOUDY    67  66  97 E3        29.98F
CEDAR ISLAND     N/A     68 N/A N/A NE6       30.03S
JACKSONVILLE   CLOUDY    66  64  93 SE5       29.97S
PINEY ISLAND   PTSUNNY  N/A N/A N/A E6        29.98F
WILMINGTON     CLOUDY    65  63  93 E7        29.96S


$$

NCZ011>013-027>030-043-044-078>080-089-090>093-098-191100-
COASTAL PLAIN

CITY           SKY/WX    TMP DP  RH WIND       PRES   REMARKS
AHOSKIE        PTCLDY    58  57  97 CALM      30.01S FOG
CLINTON        CLOUDY    65  65 100 CALM      29.98S
ELIZABETHTOWN  PTCLDY    63  63 100 CALM      29.97R
GOLDSBORO      CLOUDY    64  64 100 NE1       29.97S
GREENVILLE     LGT RAIN  64  64 100 E3        30.02R VSB 1/2
HAVELOCK       CLOUDY    65  63  93 SE5       30.00S
KENANSVILLE    CLOUDY    63  62  97 CALM      30.00R
KINSTON        FOG       65  65  99 E3        30.00R VSB 1/4
NEW BERN       MOCLDY    66  64  93 CALM      30.01R FOG
RICHLANDS      CLOUDY    64  61  88 E5        29.99S
ROCKY MOUNT    CLOUDY    64  63  96 CALM      30.00S FOG
WASHINGTON     CLOUDY    64  63  98 E5        30.01R FOG
WHITEVILLE       N/A     63  61  96 CALM      29.96S FOG

$$

AMZ130-135-150-152-154-156-158-170-250-252-270-ANZ085-086-088-633-658-670-191100-
MARINE OBSERVATIONS

STATION/POSITION TIME  TEMP    WIND        PRES    WAVE   SWELL
                       AIR SEA DIR/SP/G            HT/PER HT/PER
                 (UTC) (F)     (DEG/KT/KT) (MB)    (FT/S) (FT/S)
CHESAPEAKE LIGHT 1000   54     350/  6/  6 1017.4
64 E VA BEACH    0950   56 56  360/  6/  8 1015.9    3/ 8   3/ 8
DUCK             1000   53 57   90/  2/  2 1015.6
2 E DUCK         0911      55                N/A     3/ 7   2/12
10 NE DUCK       NOT AVBL
OREGON INLET     1000   55 61   10/  5/ 10 1016.2
HATTERAS CG      1000   64 66   70/  5/  8 1015.2
DIAMOND BUOY     0950   71 76   40/ 10/ 12 1015.4    4/14   3/14
CAPE LOOKOUT     1000   66      40/  8/  9 1015.0
BEAUFORT LAB     1000   67 65   70/  4/  6 1014.5
27 SE WRIGHTSVLE 1000   69 72  100/ 12/ 14   N/A
5 SE WRIGHTSVLE  1000   65 64   60/  8/ 10 1014.6
225 S CAPE HAT   0950   72 75   50/ 10/ 12 1015.2    4/13   5/13
41 SE CHARLESTON 0950   73 75   70/  6/  8 1013.2    3/ 8   3/ 8

$$



USA.gov is the U.S. government's official web portal to all federal, state and local government web resources and services.